Theta_e
314 314 314 313 311 308 315 325 314 327 328 315 318 313 311 302 311 314 312 313 311 308 308 306 305 304 308 310 310 305 309 307 300 301 305 305 303 301 300 297 295 298 296 295
314 314 313 313 311 308 315 316 316 327 325 310 311 314 310 311 310 311 310 309 310 311 307 303 306 306 310 310 309 307 310 303 299 299 303 304 301 303 304 303 302 297 295 296
314 314 313 313 311 309 314 316 310 317 318 318 314 311 310 309 311 310 311 310 311 308 306 308 305 305 307 310 310 307 308 305 302 296 299 301 299 301 302 302 300 298 298 299
315 314 314 313 311 310 317 317 315 317 311 312 313 314 311 309 307 311 312 309 308 307 304 305 305 306 308 308 306 308 309 302 303 303 302 301 300 299 300 299 300 297 299 299
315 314 314 313 311 309 319 311 311 318 312 315 312 306 310 308 309 309 307 307 308 308 306 307 304 306 308 306 310 308 310 300 302 299 302 301 299 300 301 301 301 301 300 299
314 314 314 314 312 311 317 318 318 314 307 311 309 310 311 310 311 311 311 310 308 307 308 309 310 311 312 310 306 307 306 303 300 297 301 301 297 302 301 301 302 301 296 301
314 314 314 314 314 311 318 317 314 310 305 308 307 308 309 309 309 309 310 311 310 312 313 312 311 310 309 308 307 309 306 304 302 297 300 291 302 306 303 301 302 303 302 303
314 315 315 314 314 313 318 319 315 311 305 307 307 308 308 310 310 309 309 311 315 314 310 307 305 305 306 306 307 307 308 305 300 297 296 299 300 304 301 297 298 304 303 303
314 314 315 314 314 314 318 320 319 314 308 307 309 309 309 308 309 309 310 314 317 314 309 306 300 298 301 301 303 308 309 307 302 299 293 290 301 305 305 303 295 305 304 304
312 314 315 316 315 315 316 320 324 314 308 311 311 308 309 313 311 309 311 311 310 315 306 302 301 300 305 298 299 301 302 303 298 297 295 298 305 307 306 292 297 306 306 306
310 312 313 315 315 316 315 319 324 314 310 312 313 312 311 312 311 308 314 309 311 309 304 303 303 302 304 302 304 302 301 300 298 299 295 292 308 305 296 305 309 309 308 308
309 310 312 314 315 315 312 314 322 320 311 312 318 317 317 315 315 313 316 312 311 311 307 307 307 303 304 303 297 307 298 303 301 302 301 310 310 308 310 311 309 309 309 309
307 309 311 313 314 315 313 316 319 316 311 311 311 311 318 320 317 318 310 313 315 315 319 310 308 303 306 300 301 303 306 307 302 302 304 306 309 311 311 311 310 310 310 310
306 307 309 311 313 314 313 314 318 317 312 305 309 318 314 317 319 317 317 316 319 320 314 307 306 303 308 303 304 303 305 306 304 303 306 307 309 309 309 310 311 309 310 309
305 307 309 310 312 312 314 315 318 319 312 306 308 315 316 316 316 314 315 314 315 310 307 306 304 308 307 306 304 301 306 304 302 301 308 308 307 309 310 309 309 309 308 307
304 306 308 309 310 311 308 303 315 319 316 308 302 314 313 314 314 313 313 312 312 310 307 306 308 313 308 301 300 308 310 311 311 308 311 310 310 311 311 310 310 309 308 308
303 305 307 308 308 310 305 303 306 309 319 305 302 303 312 313 313 312 311 314 311 309 307 306 307 307 306 302 299 307 309 310 311 312 312 307 309 309 311 311 310 309 309 307
302 304 306 307 307 307 305 310 306 308 310 309 301 303 305 312 308 306 312 308 309 309 307 309 306 308 306 300 306 308 309 310 310 311 312 311 311 311 310 309 309 307 305 305
301 303 305 309 306 303 307 307 307 306 303 295 300 300 298 309 308 309 308 309 303 309 304 304 306 304 300 304 306 307 309 309 309 310 310 311 309 308 307 307 307 303 304 305
301 304 303 299 308 308 309 302 297 297 298 298 296 306 300 306 306 304 304 306 303 299 304 308 302 301 310 310 311 312 311 311 311 308 307 308 307 306 305 305 304 304 304 306
302 300 300 310 309 304 300 293 291 292 291 296 298 303 301 308 302 301 305 302 302 296 301 301 300 300 307 310 310 313 313 312 312 312 312 312 309 307 305 304 305 305 305 306
301 301 310 305 300 296 289 287 290 289 292 300 300 303 306 305 308 303 304 299 301 295 306 300 297 303 310 311 310 312 313 312 311 312 311 308 307 306 305 305 305 306 307 309
304 300 298 294 291 285 285 286 289 292 301 301 303 301 305 304 305 302 300 295 296 305 299 297 301 307 310 312 312 312 313 313 312 311 309 308 306 305 306 305 306 307 307 309
293 293 286 288 286 290 295 297 298 302 304 304 305 303 300 302 299 300 294 299 301 295 294 295 302 308 310 311 312 311 311 311 310 308 308 306 305 305 306 306 308 307 307 308
289 291 285 289 297 300 301 301 302 306 308 306 303 301 301 298 296 298 297 295 293 296 297 301 306 313 312 310 310 310 310 309 308 309 307 306 306 306 306 308 309 308 309 308
291 288 289 296 296 296 299 300 302 304 303 307 303 296 294 293 297 295 295 294 293 298 302 306 313 314 314 312 311 310 309 309 309 309 308 307 306 307 307 308 308 308 309 308
288 290 297 296 298 297 299 302 303 307 299 297 297 293 294 300 296 296 300 297 302 304 306 310 315 316 314 312 311 310 309 310 310 310 309 308 310 309 308 307 308 309 310 307
Wind_Speed
18 20 22 23 25 33 9 5 7 5 3 8 3 6 3 4 6 4 1 3 5 4 2 7 6 5 4 1 3 4 6 6 10 5 8 5 7 9 4 3 7 8 11 9
17 18 21 22 21 17 9 6 7 6 4 7 6 5 3 3 4 2 2 2 3 0 4 4 4 2 7 2 4 4 3 4 5 8 9 6 7 8 7 7 6 10 10 9
15 17 19 22 22 15 6 6 4 5 6 4 9 3 7 8 1 2 2 1 3 4 5 5 3 5 5 3 2 3 2 8 10 10 14 7 7 9 10 10 7 12 14 19
13 15 19 21 24 23 6 3 3 5 4 4 5 4 4 9 7 8 6 5 8 5 4 6 7 5 9 7 6 5 5 11 12 12 12 12 13 13 13 14 14 14 17 19
11 13 16 19 24 30 5 6 5 1 8 6 8 5 8 10 6 3 8 8 5 5 6 5 7 3 7 7 11 8 6 8 8 13 14 13 15 15 14 14 14 15 16 18
10 10 13 16 20 21 5 4 3 6 1 7 9 9 9 6 8 6 9 5 5 7 3 2 5 6 6 5 6 7 8 7 8 12 6 8 13 10 9 10 7 10 14 16
10 10 9 12 14 14 8 5 6 7 10 5 9 1 4 8 7 10 6 8 8 6 4 1 4 5 6 8 9 8 8 9 10 11 12 13 4 4 4 7 10 10 13 15
9 10 10 9 12 13 9 4 5 5 8 9 6 8 9 6 4 8 6 5 7 5 3 7 7 8 8 10 10 10 9 9 9 8 10 13 13 6 1 4 11 14 11 10
9 9 10 9 10 11 9 4 5 6 7 5 6 5 7 9 8 8 6 7 4 4 7 9 8 8 6 7 7 6 9 10 10 10 10 8 5 7 4 3 8 5 6 13
10 10 10 10 8 8 8 4 1 6 8 9 3 5 8 8 8 7 10 10 7 7 8 9 10 11 9 9 9 8 9 9 13 11 11 10 6 10 4 4 4 9 13 15
12 11 10 9 9 6 7 3 1 6 8 9 3 7 9 6 6 9 8 7 8 8 9 10 9 6 8 7 10 6 9 6 6 7 12 13 11 10 4 4 10 12 13 14
12 12 11 10 9 7 5 8 4 3 7 10 6 9 11 12 10 9 5 4 3 5 5 6 5 5 5 7 10 8 7 10 5 5 2 4 5 5 3 8 12 13 13 13
12 12 12 11 10 8 9 9 6 4 8 11 14 16 11 13 11 7 6 7 3 3 5 7 5 6 5 7 9 12 11 8 6 6 5 6 9 9 8 9 9 10 11 14
13 12 12 11 9 9 11 8 6 7 7 7 4 4 7 4 10 13 10 6 2 4 5 7 7 9 4 9 9 8 4 7 8 12 13 11 10 6 5 6 8 10 11 13
13 13 13 11 10 9 8 8 9 8 8 6 5 1 11 9 8 10 13 9 8 7 7 7 9 10 7 8 7 11 11 12 10 8 6 3 4 2 4 6 9 10 11 13
12 13 13 10 9 7 2 2 10 11 8 6 6 3 8 8 9 10 12 10 9 9 9 8 10 5 3 7 10 13 11 9 9 9 3 4 3 3 7 7 8 10 11 13
12 12 11 9 7 3 3 2 5 9 7 4 6 7 10 9 9 8 7 11 8 8 9 10 10 6 6 11 14 12 6 8 9 8 6 6 8 6 3 6 7 7 11 12
11 12 11 10 8 7 5 5 3 10 3 4 6 5 6 9 7 7 7 7 9 8 9 7 8 6 6 8 10 14 13 10 11 11 9 8 3 3 6 4 7 10 11 11
11 12 14 5 5 4 1 7 8 3 0 3 6 11 8 9 8 7 5 5 7 6 8 12 8 11 11 9 12 13 13 13 13 12 10 10 8 7 3 7 9 11 11 11
10 8 3 4 5 22 15 3 3 2 3 3 5 9 7 8 9 8 6 5 8 6 10 9 15 15 16 17 13 11 11 14 12 13 11 9 8 5 3 6 7 9 11 10
6 6 5 5 16 2 3 3 3 3 4 6 6 12 5 6 8 7 6 3 4 5 8 7 5 9 16 21 20 13 13 14 12 9 9 7 2 2 4 6 7 9 10 9
6 4 1 2 3 2 3 5 4 6 8 10 10 16 13 5 4 4 5 3 4 7 5 5 7 9 13 16 20 18 14 12 11 11 8 6 4 2 2 6 7 8 8 7
4 4 5 4 2 5 6 9 6 7 7 6 11 12 6 3 3 3 4 6 8 3 6 6 5 7 10 8 12 19 17 13 12 11 8 6 4 4 4 6 7 8 8 7
4 6 6 6 6 8 9 11 2 7 5 10 13 10 5 5 6 4 5 8 4 8 9 9 5 9 10 10 11 14 14 14 13 10 8 6 7 3 2 4 6 7 8 8
5 5 7 9 9 8 4 4 4 7 6 8 8 5 4 3 5 5 7 6 9 8 8 5 10 12 13 14 14 14 14 12 11 9 8 6 5 4 5 5 6 7 6 7
3 5 5 7 7 11 8 6 8 1 6 10 5 4 5 5 5 10 12 9 7 6 5 8 10 13 14 13 14 13 12 11 9 7 6 5 4 4 5 6 6 6 6 8
6 6 9 9 7 7 9 9 6 3 3 3 3 9 9 6 8 12 11 14 5 5 9 7 10 13 14 14 14 12 11 10 8 6 6 4 2 3 6 8 6 6 6 4
Wind_Direction
349 349 348 352 352 341 326 289 252 93 194 252 242 281 125 1 155 188 178 306 317 292 27 280 277 283 83 32 295 266 65 304 275 248 58 293 287 304 302 278 278 285 309 308
347 347 345 349 353 10 314 295 301 132 242 263 214 98 154 248 192 211 229 164 310 349 271 277 259 230 87 193 260 359 147 238 284 243 181 204 251 242 223 259 278 273 293 279
346 346 344 344 343 353 295 280 262 163 215 281 298 173 209 179 209 151 258 78 243 228 234 212 271 217 145 150 53 10 338 268 260 270 335 337 260 234 243 254 265 271 276 304
345 348 344 344 339 337 288 249 56 4 298 160 278 296 318 227 176 233 222 214 237 237 255 237 229 237 136 189 143 215 259 264 267 263 284 286 278 275 279 275 275 277 289 301
343 349 346 346 342 333 256 315 334 191 282 288 263 169 234 253 215 212 217 250 220 237 253 284 326 288 238 252 153 242 206 269 273 281 266 261 278 278 276 271 273 275 291 299
331 345 349 351 351 337 326 21 199 275 226 222 254 252 224 239 268 169 278 256 224 224 262 354 348 330 324 310 266 211 233 271 264 283 273 282 278 292 249 292 289 293 293 316
323 327 343 352 351 358 313 25 291 270 264 226 265 282 284 262 240 247 196 238 223 81 87 191 232 250 252 240 237 256 240 248 273 271 290 276 70 88 348 294 289 298 297 313
316 318 319 342 338 345 311 321 305 299 275 274 271 231 252 240 219 236 202 164 41 131 198 252 224 206 220 219 231 212 238 255 268 264 281 305 258 162 67 87 297 300 291 325
314 309 308 312 325 338 299 341 309 275 295 288 359 290 242 249 206 178 195 89 168 187 265 231 252 269 291 165 173 232 227 233 266 269 273 276 33 112 83 317 281 56 302 314
323 312 304 302 301 319 308 310 13 273 272 278 321 268 291 225 285 234 163 156 192 222 247 252 259 265 256 266 248 172 209 225 233 242 251 257 102 130 137 255 303 343 320 311
329 315 302 294 281 292 297 333 106 294 286 282 274 271 278 246 247 253 118 175 203 202 241 261 260 247 264 238 267 275 218 214 253 248 264 273 115 134 201 283 319 302 310 313
326 325 309 285 273 262 271 272 147 269 261 300 329 285 293 288 314 310 163 296 318 238 236 227 289 261 250 266 270 161 254 244 278 189 266 113 194 248 282 282 303 309 312 316
323 323 322 299 273 250 233 291 319 244 259 265 240 237 239 217 237 268 281 205 288 222 341 312 296 269 283 260 246 258 195 238 241 268 264 277 227 246 270 278 294 317 307 299
317 315 317 315 289 252 222 250 256 268 292 283 227 123 216 215 233 219 232 296 281 297 246 254 259 261 229 260 293 275 309 154 234 255 263 257 245 256 308 304 308 299 309 327
310 314 313 307 307 273 235 248 262 272 280 310 301 202 215 187 210 221 219 219 237 236 223 233 245 257 263 252 273 267 247 234 245 258 324 277 260 304 288 290 298 317 324 326
306 310 313 326 327 294 131 245 229 226 236 276 256 171 182 189 208 215 211 211 225 244 250 248 249 127 255 262 240 253 249 243 227 250 262 225 279 291 283 293 315 328 329 319
304 307 317 313 324 253 217 251 327 315 183 238 235 235 175 197 195 198 203 210 223 237 237 240 255 214 181 254 257 254 234 236 216 225 184 225 230 249 340 312 318 315 307 312
300 302 311 305 294 299 255 215 263 321 182 239 250 232 168 192 196 190 207 204 220 218 246 226 238 189 221 253 246 246 246 227 208 205 200 249 288 261 259 288 303 307 322 332
289 296 290 273 205 214 169 116 101 49 195 208 248 228 199 161 223 208 165 237 217 231 220 237 230 227 222 232 249 243 219 216 204 200 197 217 231 254 298 297 325 328 328 328
279 265 211 232 186 118 132 65 119 209 202 214 257 243 190 201 187 178 194 185 233 210 223 236 230 241 245 233 256 255 199 201 200 199 194 217 233 249 274 326 335 336 328 327
210 209 226 68 128 154 166 157 178 183 225 207 209 252 185 218 191 199 207 216 244 244 215 204 226 243 231 228 224 225 203 196 199 195 212 203 236 326 319 324 328 326 334 342
340 304 78 131 218 196 166 192 182 213 219 171 203 201 222 162 169 183 203 227 250 242 118 220 234 247 218 217 209 206 194 191 188 191 189 179 170 174 312 321 330 337 335 328
281 226 208 184 163 200 220 193 196 210 195 159 176 184 153 129 187 160 213 218 234 104 219 230 236 250 203 199 193 185 184 186 177 181 176 174 191 162 225 323 325 336 326 328
249 209 205 215 179 230 197 234 171 189 221 188 183 149 148 155 160 146 205 237 209 227 205 227 210 209 170 168 166 162 166 169 171 172 173 192 203 226 268 272 331 328 325 336
225 226 223 213 234 239 255 248 230 225 218 200 149 99 110 113 140 219 229 207 227 216 220 212 220 168 168 168 158 155 155 163 166 167 180 200 226 242 299 326 343 324 322 324
247 228 261 246 266 237 207 250 239 184 295 179 114 139 162 179 198 199 208 216 215 202 161 225 134 156 161 162 158 153 158 162 163 171 181 203 237 275 334 325 313 318 320 336
224 227 234 257 299 282 267 217 208 121 345 180 156 190 182 170 214 215 214 218 212 153 198 133 156 159 158 156 152 156 158 161 165 176 183 217 257 276 288 295 339 344 310 28